QFA551 YBBN-YSSY

Flight info

Callsign QFA551
Flight time 1h 10m
Altitude 36000
Route BN H91 IGDAM/N0467F350 H652 TESAT
Aircraft B738/M-SDE2E3FGHIRWXY/LB1

Departure

Time 2026-05-07 08:49
Airport Brisbane International Airport (YBBN)

Arrival

Time 2026-05-07 10:00
Airport Sydney Kingsford Smith International Airport (YSSY)
Time Latitude Longitude Altitude Speed Heading
2026-05-07 08:07 -27.38474 153.12135 20 ft 0 kts 297°
2026-05-07 08:38 -27.38476 153.12139 20 ft 3 kts 298°
2026-05-07 08:39 -27.38497 153.12169 20 ft 3 kts 298°
2026-05-07 08:39 -27.38504 153.12187 20 ft 4 kts 245°
2026-05-07 08:39 -27.38497 153.12202 20 ft 2 kts 248°
2026-05-07 08:39 -27.38488 153.12226 22 ft 4 kts 251°
2026-05-07 08:40 -27.38483 153.12254 20 ft 4 kts 285°
2026-05-07 08:40 -27.38492 153.12277 22 ft 4 kts 297°
2026-05-07 08:40 -27.38496 153.12285 24 ft 0 kts 297°
2026-05-07 08:45 -27.38493 153.12281 22 ft 2 kts 306°
2026-05-07 08:45 -27.38457 153.12275 20 ft 9 kts 21°
2026-05-07 08:45 -27.38431 153.12353 20 ft 13 kts 90°
2026-05-07 08:45 -27.38457 153.12462 20 ft 16 kts 92°
2026-05-07 08:46 -27.38385 153.12542 20 ft 15 kts 26°
2026-05-07 08:46 -27.38290 153.12594 20 ft 15 kts 27°
2026-05-07 08:46 -27.38185 153.12654 20 ft 20 kts 27°
2026-05-07 08:46 -27.38058 153.12727 20 ft 21 kts 27°
2026-05-07 08:47 -27.38004 153.12839 20 ft 18 kts 111°
2026-05-07 08:47 -27.38056 153.12963 20 ft 17 kts 117°
2026-05-07 08:47 -27.38139 153.13039 21 ft 17 kts 188°
2026-05-07 08:47 -27.38201 153.13011 23 ft 0 kts 208°
2026-05-07 08:48 -27.38316 153.12946 24 ft 46 kts 207°
2026-05-07 08:48 -27.38771 153.12688 22 ft 98 kts 207°
2026-05-07 08:48 -27.39511 153.12270 26 ft 137 kts 204°
2026-05-07 08:49 -27.40474 153.11831 355 ft 163 kts 199°
2026-05-07 08:49 -27.41653 153.11499 1110 ft 186 kts 189°
2026-05-07 08:49 -27.42908 153.11350 2447 ft 177 kts 179°
2026-05-07 08:49 -27.44130 153.11956 3233 ft 210 kts 152°
2026-05-07 08:50 -27.45339 153.12843 3955 ft 198 kts 152°
2026-05-07 08:50 -27.46555 153.13625 4503 ft 207 kts 162°
2026-05-07 08:50 -27.47895 153.14336 4895 ft 224 kts 161°
2026-05-07 08:50 -27.49371 153.15074 5205 ft 236 kts 171°
2026-05-07 08:51 -27.50978 153.15016 5619 ft 234 kts 203°
2026-05-07 08:51 -27.52586 153.14440 5918 ft 255 kts 201°
2026-05-07 08:51 -27.54351 153.13899 6502 ft 267 kts 199°
2026-05-07 08:51 -27.56161 153.13350 7292 ft 270 kts 203°
2026-05-07 08:52 -27.57937 153.12646 8118 ft 271 kts 205°
2026-05-07 08:52 -27.59718 153.11918 8931 ft 276 kts 204°
2026-05-07 08:52 -27.61546 153.11179 9670 ft 282 kts 204°
2026-05-07 08:52 -27.63432 153.10485 10391 ft 290 kts 201°
2026-05-07 08:53 -27.65454 153.09807 10597 ft 315 kts 200°
2026-05-07 08:53 -27.67640 153.09087 10779 ft 339 kts 200°
2026-05-07 08:53 -27.69957 153.08327 11147 ft 353 kts 200°
2026-05-07 08:53 -27.72332 153.07547 11809 ft 357 kts 200°
2026-05-07 08:54 -27.74716 153.06759 12576 ft 358 kts 200°
2026-05-07 08:54 -27.77114 153.05961 13300 ft 360 kts 200°
2026-05-07 08:54 -27.79525 153.05154 13987 ft 363 kts 201°
2026-05-07 08:54 -27.81960 153.04333 14592 ft 367 kts 202°
2026-05-07 08:55 -27.84369 153.03377 15182 ft 368 kts 205°
2026-05-07 08:55 -27.86764 153.02321 15790 ft 371 kts 206°
2026-05-07 08:55 -27.89143 153.01248 16390 ft 374 kts 207°
2026-05-07 08:55 -27.91606 153.00141 16995 ft 378 kts 207°
2026-05-07 08:56 -27.94030 152.99062 17570 ft 381 kts 207°
2026-05-07 08:56 -27.96512 152.97968 18146 ft 385 kts 207°
2026-05-07 08:56 -27.99020 152.96868 18661 ft 388 kts 207°
2026-05-07 08:56 -28.01553 152.95759 19131 ft 392 kts 207°
2026-05-07 08:57 -28.04106 152.94643 19614 ft 395 kts 207°
2026-05-07 08:57 -28.06680 152.93515 20105 ft 398 kts 208°
2026-05-07 08:57 -28.09276 152.92377 20575 ft 402 kts 208°
2026-05-07 08:57 -28.11891 152.91221 21076 ft 404 kts 209°
2026-05-07 08:58 -28.14510 152.90056 21600 ft 406 kts 209°
2026-05-07 08:58 -28.17156 152.88875 22035 ft 410 kts 209°
2026-05-07 08:58 -28.19819 152.87685 22467 ft 413 kts 210°
2026-05-07 08:58 -28.22507 152.86485 22901 ft 416 kts 210°
2026-05-07 08:59 -28.25215 152.85276 23332 ft 420 kts 210°
2026-05-07 08:59 -28.27939 152.84060 23747 ft 423 kts 210°
2026-05-07 08:59 -28.30682 152.82836 24094 ft 425 kts 210°
2026-05-07 08:59 -28.33446 152.81603 24499 ft 427 kts 210°
2026-05-07 09:00 -28.36176 152.80384 24908 ft 428 kts 210°
2026-05-07 09:00 -28.38960 152.79139 25216 ft 432 kts 210°
2026-05-07 09:00 -28.41765 152.77885 25553 ft 434 kts 211°
2026-05-07 09:00 -28.44577 152.76627 25908 ft 436 kts 211°
2026-05-07 09:01 -28.47405 152.75360 26330 ft 436 kts 211°
2026-05-07 09:01 -28.50229 152.74095 26683 ft 438 kts 211°
2026-05-07 09:01 -28.53077 152.72818 26933 ft 442 kts 212°
2026-05-07 09:01 -28.55945 152.71524 27232 ft 445 kts 212°
2026-05-07 09:02 -28.58829 152.70230 27573 ft 446 kts 212°
2026-05-07 09:02 -28.61720 152.68935 27924 ft 448 kts 212°
2026-05-07 09:02 -28.64636 152.67627 28199 ft 451 kts 212°
2026-05-07 09:02 -28.67557 152.66314 28468 ft 453 kts 213°
2026-05-07 09:03 -28.70496 152.64994 28747 ft 455 kts 213°
2026-05-07 09:03 -28.73442 152.63656 28995 ft 457 kts 213°
2026-05-07 09:03 -28.76409 152.62322 29304 ft 459 kts 213°
2026-05-07 09:03 -28.79383 152.60987 29581 ft 460 kts 213°
2026-05-07 09:04 -28.82368 152.59644 29861 ft 462 kts 213°
2026-05-07 09:04 -28.85329 152.58275 30311 ft 455 kts 216°
2026-05-07 09:04 -28.88140 152.56716 30751 ft 446 kts 219°
2026-05-07 09:04 -28.90883 152.55091 31097 ft 443 kts 220°
2026-05-07 09:05 -28.93602 152.53440 31373 ft 443 kts 220°
2026-05-07 09:05 -28.96328 152.51790 31626 ft 444 kts 219°
2026-05-07 09:05 -28.99064 152.50161 31855 ft 444 kts 219°
2026-05-07 09:05 -29.01368 152.48771 32040 ft 444 kts 219°
2026-05-07 09:06 -29.04099 152.47124 32397 ft 442 kts 219°
2026-05-07 09:06 -29.06818 152.45491 32769 ft 441 kts 219°
2026-05-07 09:06 -29.09541 152.43857 32939 ft 444 kts 219°
2026-05-07 09:06 -29.12275 152.42220 33151 ft 445 kts 219°
2026-05-07 09:07 -29.15012 152.40577 33520 ft 441 kts 219°
2026-05-07 09:07 -29.17720 152.38960 33860 ft 440 kts 219°
2026-05-07 09:07 -29.20438 152.37341 34106 ft 440 kts 220°
2026-05-07 09:07 -29.23154 152.35721 34327 ft 440 kts 220°
2026-05-07 09:08 -29.25867 152.34103 34618 ft 438 kts 220°
2026-05-07 09:08 -29.28561 152.32491 34897 ft 436 kts 220°
2026-05-07 09:08 -29.31254 152.30878 35122 ft 437 kts 220°
2026-05-07 09:08 -29.33951 152.29262 35325 ft 437 kts 220°
2026-05-07 09:09 -29.36649 152.27646 35566 ft 437 kts 221°
2026-05-07 09:09 -29.39341 152.26031 35833 ft 436 kts 221°
2026-05-07 09:09 -29.42024 152.24422 36104 ft 434 kts 221°
2026-05-07 09:09 -29.44708 152.22804 36077 ft 437 kts 221°
2026-05-07 09:10 -29.50236 152.19826 36140 ft 438 kts 219°
2026-05-07 09:10 -29.52803 152.18155 36154 ft 425 kts 225°
2026-05-07 09:10 -29.55322 152.16366 36108 ft 429 kts 224°
2026-05-07 09:11 -29.60665 152.13110 36119 ft 437 kts 220°
2026-05-07 09:11 -29.66088 152.09932 36121 ft 437 kts 221°
2026-05-07 09:12 -29.71690 152.06992 36108 ft 458 kts 209°
2026-05-07 09:12 -29.77994 152.05313 36135 ft 468 kts 205°
2026-05-07 09:13 -29.84355 152.03749 36135 ft 466 kts 205°
2026-05-07 09:13 -29.90676 152.02139 36111 ft 464 kts 206°
2026-05-07 09:14 -29.96949 152.00500 36137 ft 461 kts 206°
2026-05-07 09:14 -30.03207 151.98856 36141 ft 460 kts 206°
2026-05-07 09:15 -30.09432 151.97220 36167 ft 458 kts 206°
2026-05-07 09:15 -30.15605 151.95600 36143 ft 458 kts 206°
2026-05-07 09:16 -30.21810 151.93965 36155 ft 457 kts 206°
2026-05-07 09:16 -30.28004 151.92334 36155 ft 456 kts 206°
2026-05-07 09:17 -30.34105 151.90515 36161 ft 443 kts 213°
2026-05-07 09:17 -30.39800 151.87874 36167 ft 440 kts 216°
2026-05-07 09:18 -30.45461 151.85132 36225 ft 442 kts 216°
2026-05-07 09:18 -30.51179 151.82411 36182 ft 445 kts 215°
2026-05-07 09:19 -30.56931 151.79715 36180 ft 446 kts 215°
2026-05-07 09:19 -30.62661 151.77041 36184 ft 446 kts 215°
2026-05-07 09:20 -30.68411 151.74352 36239 ft 445 kts 215°
2026-05-07 09:20 -30.74139 151.71669 36184 ft 443 kts 215°
2026-05-07 09:21 -30.79849 151.68991 36180 ft 441 kts 215°
2026-05-07 09:21 -30.85517 151.66326 36184 ft 439 kts 215°
2026-05-07 09:22 -30.91164 151.63668 36236 ft 437 kts 216°
2026-05-07 09:22 -30.96792 151.61021 36184 ft 435 kts 215°
2026-05-07 09:23 -31.02396 151.58373 36186 ft 434 kts 215°
2026-05-07 09:23 -31.07984 151.55730 36204 ft 433 kts 215°
2026-05-07 09:24 -31.13559 151.53091 36255 ft 433 kts 216°
2026-05-07 09:24 -31.19152 151.50441 36219 ft 433 kts 216°
2026-05-07 09:25 -31.24737 151.47792 36211 ft 433 kts 216°
2026-05-07 09:25 -31.30278 151.45160 36215 ft 433 kts 216°
2026-05-07 09:26 -31.35854 151.42508 36273 ft 433 kts 216°
2026-05-07 09:26 -31.41462 151.39880 36228 ft 435 kts 214°
2026-05-07 09:27 -31.47134 151.37367 36221 ft 435 kts 214°
2026-05-07 09:28 -31.54665 151.34039 36213 ft 433 kts 214°
2026-05-07 09:28 -31.60313 151.31555 36219 ft 433 kts 213°
2026-05-07 09:29 -31.66823 151.28618 36231 ft 430 kts 214°
2026-05-07 09:29 -31.71498 151.26511 36220 ft 429 kts 213°
2026-05-07 09:30 -31.77963 151.23602 36265 ft 427 kts 213°
2026-05-07 09:30 -31.82615 151.21523 36225 ft 427 kts 213°
2026-05-07 09:31 -31.88158 151.19025 36228 ft 427 kts 213°
2026-05-07 09:31 -31.93679 151.16535 36230 ft 428 kts 213°
2026-05-07 09:32 -31.99252 151.14033 36213 ft 428 kts 213°
2026-05-07 09:32 -32.04824 151.11538 36225 ft 428 kts 212°
2026-05-07 09:33 -32.10376 151.09051 36218 ft 425 kts 212°
2026-05-07 09:33 -32.15902 151.06564 36218 ft 424 kts 212°
2026-05-07 09:34 -32.21408 151.04086 36227 ft 422 kts 211°
2026-05-07 09:34 -32.26894 151.01619 36206 ft 421 kts 211°
2026-05-07 09:35 -32.32353 150.99147 36199 ft 420 kts 211°
2026-05-07 09:35 -32.37806 150.96680 36204 ft 419 kts 211°
2026-05-07 09:36 -32.43246 150.94218 36200 ft 418 kts 211°
2026-05-07 09:36 -32.48828 150.92200 36198 ft 435 kts 199°
2026-05-07 09:37 -32.55052 150.91991 36179 ft 459 kts 184°
2026-05-07 09:37 -32.61418 150.93159 36016 ft 467 kts 181°
2026-05-07 09:37 -32.64614 150.93786 35323 ft 473 kts 181°
2026-05-07 09:38 -32.67818 150.94408 35027 ft 460 kts 181°
2026-05-07 09:38 -32.70953 150.94997 34663 ft 451 kts 181°
2026-05-07 09:38 -32.74034 150.95555 34289 ft 444 kts 181°
2026-05-07 09:38 -32.77072 150.96098 33803 ft 439 kts 181°
2026-05-07 09:39 -32.80087 150.96634 33234 ft 435 kts 181°
2026-05-07 09:39 -32.83066 150.97163 32671 ft 432 kts 181°
2026-05-07 09:39 -32.86006 150.97697 32024 ft 424 kts 180°
2026-05-07 09:39 -32.88912 150.98218 31228 ft 420 kts 180°
2026-05-07 09:40 -32.91779 150.98722 30495 ft 415 kts 180°
2026-05-07 09:40 -32.94602 150.99220 29832 ft 404 kts 180°
2026-05-07 09:40 -32.97368 150.99710 28744 ft 401 kts 180°
2026-05-07 09:40 -33.00149 151.00198 27403 ft 404 kts 179°
2026-05-07 09:41 -33.02945 151.00689 26186 ft 406 kts 179°
2026-05-07 09:41 -33.05726 151.01185 25247 ft 401 kts 179°
2026-05-07 09:41 -33.08460 151.01675 24435 ft 394 kts 179°
2026-05-07 09:41 -33.11144 151.02157 23599 ft 387 kts 179°
2026-05-07 09:42 -33.13786 151.02628 22639 ft 381 kts 179°
2026-05-07 09:42 -33.16349 151.03086 21851 ft 374 kts 179°
2026-05-07 09:42 -33.18908 151.03546 21168 ft 362 kts 179°
2026-05-07 09:42 -33.21343 151.03980 20315 ft 356 kts 179°
2026-05-07 09:43 -33.23782 151.04413 19542 ft 351 kts 179°
2026-05-07 09:43 -33.26179 151.04859 18657 ft 347 kts 178°
2026-05-07 09:43 -33.28563 151.05317 17694 ft 348 kts 178°
2026-05-07 09:43 -33.30962 151.05781 16877 ft 349 kts 177°
2026-05-07 09:44 -33.33353 151.06239 16109 ft 348 kts 177°
2026-05-07 09:44 -33.35750 151.06701 15311 ft 350 kts 176°
2026-05-07 09:44 -33.38166 151.07166 14537 ft 352 kts 176°
2026-05-07 09:44 -33.40597 151.07630 13776 ft 354 kts 175°
2026-05-07 09:45 -33.43034 151.08097 13259 ft 349 kts 175°
2026-05-07 09:45 -33.45377 151.08553 13146 ft 333 kts 175°
2026-05-07 09:45 -33.47566 151.08979 13005 ft 314 kts 175°
2026-05-07 09:45 -33.49660 151.09385 12870 ft 296 kts 176°
2026-05-07 09:46 -33.51639 151.09768 12752 ft 280 kts 176°
2026-05-07 09:46 -33.53515 151.10128 12648 ft 266 kts 176°
2026-05-07 09:46 -33.55302 151.10470 12403 ft 257 kts 176°
2026-05-07 09:46 -33.57063 151.10804 11958 ft 255 kts 176°
2026-05-07 09:47 -33.58819 151.11140 11538 ft 255 kts 176°
2026-05-07 09:47 -33.60565 151.11474 11105 ft 254 kts 176°
2026-05-07 09:47 -33.62307 151.11814 10666 ft 254 kts 175°
2026-05-07 09:47 -33.64046 151.12159 10262 ft 253 kts 175°
2026-05-07 09:48 -33.65780 151.12498 9820 ft 252 kts 175°
2026-05-07 09:48 -33.67502 151.12838 9423 ft 249 kts 175°
2026-05-07 09:48 -33.69200 151.13175 9055 ft 246 kts 175°
2026-05-07 09:48 -33.70885 151.13508 8662 ft 244 kts 172°
2026-05-07 09:49 -33.72437 151.14384 8235 ft 256 kts 145°
2026-05-07 09:49 -33.73477 151.16155 7854 ft 269 kts 117°
2026-05-07 09:49 -33.73782 151.18406 7484 ft 277 kts 98°
2026-05-07 09:49 -33.73799 151.20719 7127 ft 276 kts 96°
2026-05-07 09:50 -33.73778 151.23025 6719 ft 276 kts 96°
2026-05-07 09:50 -33.73745 151.25328 6339 ft 274 kts 96°
2026-05-07 09:50 -33.73702 151.27608 6043 ft 269 kts 96°
2026-05-07 09:50 -33.73650 151.29810 5946 ft 264 kts 96°
2026-05-07 09:51 -33.73602 151.32028 5725 ft 271 kts 96°
2026-05-07 09:51 -33.73558 151.34301 5520 ft 273 kts 97°
2026-05-07 09:51 -33.73608 151.36561 5281 ft 265 kts 111°
2026-05-07 09:51 -33.74332 151.38476 5052 ft 243 kts 140°
2026-05-07 09:52 -33.75565 151.39781 4869 ft 234 kts 152°
2026-05-07 09:52 -33.76879 151.40948 4566 ft 238 kts 152°
2026-05-07 09:52 -33.78235 151.42115 4226 ft 239 kts 152°
2026-05-07 09:52 -33.79580 151.43290 3894 ft 237 kts 153°
2026-05-07 09:53 -33.80979 151.44211 3525 ft 221 kts 175°
2026-05-07 09:53 -33.82436 151.44146 3257 ft 205 kts 200°
2026-05-07 09:53 -33.83764 151.43652 3202 ft 194 kts 202°
2026-05-07 09:53 -33.84991 151.43177 3191 ft 177 kts 202°
2026-05-07 09:54 -33.86118 151.42749 3170 ft 162 kts 202°
2026-05-07 09:54 -33.87154 151.42364 3171 ft 151 kts 204°
2026-05-07 09:54 -33.87983 151.41739 3189 ft 144 kts 239°
2026-05-07 09:54 -33.88341 151.40561 3200 ft 154 kts 241°
2026-05-07 09:55 -33.88796 151.39381 3210 ft 155 kts 241°
2026-05-07 09:55 -33.89187 151.38178 3200 ft 155 kts 244°
2026-05-07 09:55 -33.89523 151.36937 3140 ft 158 kts 247°
2026-05-07 09:55 -33.89834 151.35667 2943 ft 157 kts 248°
2026-05-07 09:56 -33.90128 151.34429 2741 ft 151 kts 249°
2026-05-07 09:56 -33.90411 151.33221 2527 ft 148 kts 249°
2026-05-07 09:56 -33.90691 151.32028 2326 ft 148 kts 250°
2026-05-07 09:56 -33.90973 151.30828 2123 ft 150 kts 250°
2026-05-07 09:57 -33.91254 151.29630 1917 ft 148 kts 250°
2026-05-07 09:57 -33.91539 151.28418 1722 ft 152 kts 251°
2026-05-07 09:57 -33.91828 151.27184 1506 ft 152 kts 252°
2026-05-07 09:57 -33.92105 151.26000 1297 ft 142 kts 252°
2026-05-07 09:58 -33.92371 151.24889 1059 ft 136 kts 252°
2026-05-07 09:58 -33.92628 151.23833 890 ft 132 kts 253°
2026-05-07 09:58 -33.92892 151.22807 724 ft 122 kts 255°
2026-05-07 09:58 -33.93102 151.21851 529 ft 115 kts 257°
2026-05-07 09:59 -33.93325 151.20960 393 ft 109 kts 258°
2026-05-07 09:59 -33.93532 151.20052 268 ft 122 kts 258°
2026-05-07 09:59 -33.93731 151.19043 118 ft 120 kts 259°
2026-05-07 09:59 -33.93971 151.18114 32 ft 108 kts 255°
2026-05-07 10:00 -33.94112 151.17481 29 ft 42 kts 255°
2026-05-07 10:00 -33.94131 151.17279 27 ft 16 kts 311°
2026-05-07 10:00 -33.94055 151.17242 28 ft 9 kts 348°
2026-05-07 10:00 -33.93996 151.17235 28 ft 7 kts 13°
2026-05-07 10:01 -33.93963 151.17265 28 ft 6 kts 58°
2026-05-07 10:01 -33.93948 151.17316 27 ft 8 kts 73°
2026-05-07 10:01 -33.93923 151.17420 27 ft 17 kts 74°
2026-05-07 10:01 -33.93891 151.17552 27 ft 14 kts 70°
2026-05-07 10:02 -33.93827 151.17591 28 ft 10 kts 350°
2026-05-07 10:02 -33.93762 151.17575 28 ft 10 kts 348°
2026-05-07 10:02 -33.93680 151.17553 28 ft 14 kts 348°
2026-05-07 10:02 -33.93580 151.17530 28 ft 15 kts 349°
2026-05-07 10:03 -33.93502 151.17511 28 ft 6 kts 349°
2026-05-07 10:03 -33.93460 151.17511 29 ft 9 kts
2026-05-07 10:03 -33.93365 151.17502 29 ft 15 kts 347°
2026-05-07 10:03 -33.93265 151.17474 29 ft 14 kts 347°
2026-05-07 10:04 -33.93169 151.17449 29 ft 14 kts 348°
2026-05-07 10:04 -33.93079 151.17467 29 ft 15 kts 59°
2026-05-07 10:04 -33.93016 151.17571 29 ft 16 kts 61°
2026-05-07 10:04 -33.93030 151.17697 29 ft 15 kts 116°
2026-05-07 10:05 -33.93064 151.17815 29 ft 15 kts 100°
2026-05-07 10:05 -33.93106 151.17867 29 ft 7 kts 183°
2026-05-07 10:05 -33.93131 151.17861 29 ft 3 kts 194°
2026-05-07 10:05 -33.93141 151.17859 29 ft 1 kts 191°
2026-05-07 10:06 -33.93145 151.17858 29 ft 1 kts 191°
2026-05-07 10:06 -33.93147 151.17858 29 ft 0 kts 191°